Change the Weather History Date:

Tuesday, September 6, 2011

  Actual Average Record
Temperature  
Mean Temperature 59 °F -  
Max Temperature 68 °F 76 °F 87 °F (1999)
Min Temperature 52 °F 51 °F 39 °F (2013)
Degree Days  
Heating Degree Days 6    
Growing Degree Days 9 (Base 50)    
Moisture  
Dew Point 48 °F    
Average Humidity 70    
Maximum Humidity 86    
Minimum Humidity 57    
Precipitation  
Precipitation 0.00 in - - ()
Sea Level Pressure  
Sea Level Pressure 30.11 in    
Wind  
Wind Speed 10 mph (NE)    
Max Wind Speed 18 mph    
Max Gust Speed 23 mph    
Visibility 10 miles    
Events      
Averages and records for this station are not official NWS values.
T = Trace of Precipitation, MM = Missing Value Source: NWS Daily Summary

Daily Weather History Graph

Daily Weather History Graph

Search for Another Location

Airport or City:

Trip Planner

Search our weather history database for the weather conditions in past years. The results will help you decide how hot, cold, wet, or windy it might be!

Date:

Astronomy

Sep. 06, 2011 Rise Set
Actual Time 7:05 AM EDT 8:00 PM EDT
Civil Twilight 6:36 AM EDT 8:29 PM EDT
Nautical Twilight 6:02 AM EDT 9:03 PM EDT
Astronomical Twilight 5:27 AM EDT 9:38 PM EDT
Moon 4:40 PM EDT (9/6) 1:13 AM EDT (9/6)
Length of Visible Light 13h 52m
Length of Day
12h 55m
Waxing Gibbous, 70% of the Moon is Illuminated
Sep 6
Waxing Gibbous
Sep 12
Full
Sep 20
Last Quarter
Sep 27
New
Oct 3
First Quarter

Hourly Weather History & Observations

Time (EDT) Temp. Dew Point Humidity Pressure Visibility Wind Dir Wind Speed Gust Speed Precip Events Conditions
12:53 AM 52.0 °F 42.1 °F 69% 30.09 in 10.0 mi North 9.2 mph - N/A   Clear
1:53 AM 52.0 °F 43.0 °F 71% 30.09 in 10.0 mi NNE 6.9 mph - N/A   Scattered Clouds
2:53 AM 53.1 °F 44.1 °F 71% 30.08 in 10.0 mi North 11.5 mph - N/A   Overcast
3:53 AM 53.1 °F 45.0 °F 74% 30.09 in 10.0 mi North 10.4 mph - N/A   Overcast
4:53 AM 54.0 °F 46.0 °F 75% 30.09 in 10.0 mi NNE 6.9 mph - N/A   Overcast
5:43 AM 53.6 °F 46.4 °F 77% 30.09 in 10.0 mi NNE 6.9 mph - N/A   Overcast
7:53 AM 54.0 °F 48.0 °F 80% 30.11 in 10.0 mi NNE 8.1 mph - N/A   Overcast
8:53 AM 55.9 °F 50.0 °F 80% 30.12 in 10.0 mi NNE 8.1 mph 16.1 mph N/A   Overcast
9:06 AM 57.2 °F 50.0 °F 77% 30.12 in 10.0 mi NE 10.4 mph - N/A   Overcast
9:53 AM 57.9 °F 48.9 °F 72% 30.14 in 10.0 mi NE 10.4 mph 19.6 mph N/A   Mostly Cloudy
10:53 AM 61.0 °F 48.9 °F 64% 30.14 in 10.0 mi NE 15.0 mph 21.9 mph N/A   Overcast
11:53 AM 61.0 °F 48.9 °F 64% 30.14 in 10.0 mi ENE 13.8 mph 20.7 mph N/A   Partly Cloudy
12:53 PM 64.9 °F 50.0 °F 58% 30.14 in 10.0 mi NE 18.4 mph 23.0 mph N/A   Clear
1:53 PM 64.9 °F 50.0 °F 58% 30.13 in 10.0 mi ENE 9.2 mph 19.6 mph N/A   Mostly Cloudy
2:53 PM 66.9 °F 51.1 °F 57% 30.12 in 10.0 mi NE 15.0 mph 23.0 mph N/A   Scattered Clouds
3:53 PM 66.0 °F 51.1 °F 59% 30.11 in 10.0 mi NE 11.5 mph 17.3 mph N/A   Mostly Cloudy
4:53 PM 66.0 °F 51.1 °F 59% 30.10 in 10.0 mi East 10.4 mph - N/A   Mostly Cloudy
5:53 PM 64.9 °F 50.0 °F 58% 30.11 in 10.0 mi ENE 13.8 mph 20.7 mph N/A   Mostly Cloudy
9:53 PM 57.9 °F 50.0 °F 75% 30.13 in 10.0 mi NE 8.1 mph - N/A   Partly Cloudy
10:53 PM 57.0 °F 50.0 °F 77% 30.12 in 10.0 mi NNE 6.9 mph - N/A   Mostly Cloudy
11:53 PM 55.0 °F 51.1 °F 86% 30.12 in 10.0 mi NNE 5.8 mph - N/A   Clear